This is the latest recevied weather packets stored in our database for station/object KA4YMY. If no packets are shown the sender has not sent any weather packets the latest 10 day(s).
| Time | Temp. | Humidity | Pressure | Rain* | Wind** | Luminosity | Snow |
|---|---|---|---|---|---|---|---|
| 1777863316 | 14.44° C | 58% | 1017 hPa | 0 mm | - | - | - |
| 1777862716 | 15° C | 57% | 1016.9 hPa | 0 mm | - | - | - |
| 1777862116 | 15° C | 57% | 1016.8 hPa | 0 mm | - | - | - |
| 1777861516 | 14.44° C | 58% | 1016.5 hPa | 0 mm | - | - | - |
| 1777860916 | 14.44° C | 57% | 1016.4 hPa | 0 mm | - | - | - |
| 1777860316 | 15° C | 56% | 1016.4 hPa | 0 mm | - | - | - |
| 1777859716 | 15° C | 55% | 1016.3 hPa | 0 mm | - | - | - |
| 1777859116 | 15.56° C | 55% | 1016.1 hPa | 0 mm | - | - | - |
| 1777858516 | 15.56° C | 54% | 1015.9 hPa | 0 mm | - | - | - |
| 1777857916 | 15.56° C | 52% | 1015.9 hPa | 0 mm | - | - | - |
| 1777857316 | 15.56° C | 52% | 1015.9 hPa | 0 mm | - | - | - |
| 1777856716 | 16.11° C | 50% | 1015.7 hPa | 0 mm | - | - | - |
| 1777856116 | 16.67° C | 50% | 1015.7 hPa | 0 mm | - | - | - |
| 1777855516 | 16.67° C | 47% | 1015.6 hPa | 0 mm | - | - | - |
| 1777854916 | 17.22° C | 47% | 1015.4 hPa | 0 mm | - | - | - |
| 1777854316 | 17.22° C | 46% | 1015.4 hPa | 0 mm | - | - | - |
| 1777853716 | 17.78° C | 45% | 1015.3 hPa | 0 mm | - | - | - |
| 1777853116 | 18.33° C | 44% | 1015 hPa | 0 mm | - | - | - |
| 1777852516 | 18.33° C | 43% | 1015 hPa | 0 mm | - | - | - |
| 1777851916 | 18.33° C | 43% | 1015 hPa | 0 mm | - | - | - |
| 1777851316 | 18.89° C | 41% | 1014.9 hPa | 0 mm | - | - | - |
| 1777850716 | 18.89° C | 40% | 1015 hPa | 0 mm | - | - | - |
| 1777850116 | 19.44° C | 40% | 1014.9 hPa | 0 mm | - | - | - |
| 1777849516 | 19.44° C | 39% | 1014.9 hPa | 0 mm | - | - | - |
| 1777848916 | 19.44° C | 39% | 1014.9 hPa | 0 mm | - | - | - |
* Rain latest hour (hover to see other rain measurements)
** Current wind speed in m/s (hover to see current wind gust speed)